#timestamp,LO_Frequency,Hit,StdDev 
1512064815.4,286046989.1,N
1512064835.2,286046983.9,Y
1512064855.1,286046993.6,P
1512064856.0,286046993.6,P
1512064875.8,286046989.9,P
1512064895.6,286046987.0,Y
1512064915.5,286046998.1,P
1512064935.3,286047004.4,N
1512064955.1,286047000.0,N
1512064975.9,286047000.0,N
1512064995.7,286047000.3,N
1512065015.5,286047003.3,N
1512065035.3,286047005.1,N
1512065055.2,286047006.3,N
1512065075.0,286047009.7,N
1512065075.9,286047009.7,N
1512065095.7,286047006.0,N
1512065115.6,286047000.1,N
1512065135.4,286047004.4,N
1512065155.2,286047004.6,N
1512065175.1,286047008.4,N
1512065176.0,286047008.4,N
1512065195.8,286047006.7,N
1512065215.6,286047006.8,N
1512065235.5,286047007.1,N
1512065255.3,286047004.7,N
1512065275.1,286047008.1,N
1512065295.9,286047008.6,N
1512065315.7,286047007.9,N
1512065335.5,286047010.4,N
1512065355.3,286047003.7,N
1512065375.2,286047009.1,N
1512065395.0,286047012.0,N
1512065395.9,286047012.0,N
1512065415.7,286047010.5,N
1512065435.6,286047006.5,N
1512065455.4,286047010.4,N
1512065475.2,286047010.0,N
1512065495.1,286047004.6,N
1512065496.0,286047004.6,N
1512065515.8,286047002.0,N
1512065535.6,286047000.2,N
1512065555.5,286046997.0,N
1512065575.3,286046997.6,N
1512065595.1,286046999.9,N
1512065615.9,286047001.7,N
1512065635.7,286047001.9,N
1512065655.5,286046998.2,N
1512065675.3,286046997.4,N
1512065695.2,286046994.5,N
1512065715.0,286046994.7,N
1512065715.9,286046994.7,N
1512065735.7,286046991.8,N
1512065755.6,286046991.8,N
1512065775.4,286046992.6,N
1512065795.2,286046994.4,N
1512065815.1,286046996.6,N
1512065816.0,286046996.6,N
1512065835.8,286046995.9,N
1512065855.6,286047001.2,N
1512065875.5,286046997.2,N
1512065895.3,286046993.7,N
1512065915.1,286046990.5,N
1512065935.9,286046992.6,N
1512065955.7,286046994.2,N
1512065975.5,286046997.2,N
1512065995.4,286046995.9,N
1512066015.2,286046995.1,N
1512066035.0,286046996.3,N
1512066035.9,286046996.3,N
1512066055.8,286046992.2,N
1512066075.6,286046994.6,N
1512066095.4,286046990.5,Y
1512066115.3,286047001.0,P
1512066135.1,286047005.7,N
1512066136.0,286047005.7,N
1512066155.8,286047005.7,N
1512066175.7,286047001.4,N
1512066195.5,286046999.7,N
1512066215.3,286046998.8,N
1512066235.1,286047001.0,N
1512066255.9,286047005.2,N
1512066275.7,286047005.5,N
1512066295.6,286047010.5,Y
1512066315.4,286047012.9,P
1512066335.2,286047019.9,P
1512066355.0,286047020.9,N
1512066355.9,286047020.9,N
1512066375.8,286047023.9,Y
1512066395.6,286047012.1,P
1512066415.5,286047010.5,P
1512066435.3,286047007.9,P
1512066455.1,286047013.0,Y
1512066475.9,286047009.3,P
1512066495.7,286047009.9,P
1512066515.5,286047009.4,P
1512066535.4,286047012.0,Y
1512066555.2,286047002.0,P
1512066575.0,286047005.0,N
1512066575.9,286047005.0,N
1512066595.8,286047010.7,Y
1512066615.6,286047003.1,P
1512066635.4,286047003.6,N
1512066655.3,286047006.2,P
1512066675.1,286047007.4,Y
1512066695.9,286047003.9,P
1512066715.7,286047005.2,P
1512066735.5,286047002.9,P
1512066755.4,286047004.4,Y
1512066775.2,286047002.4,P
1512066795.0,286047000.9,N
1512066795.9,286047000.9,N
1512066815.8,286046996.8,N
1512066835.6,286047000.2,N
1512066855.4,286047002.3,N
1512066875.3,286047003.6,N
1512066895.1,286047003.4,N
1512066896.0,286047003.4,N
1512066915.8,286047001.5,N
1512066935.7,286047003.9,N
1512066955.5,286047005.8,N
1512066975.3,286047007.4,Y
1512066995.2,286047003.7,P
1512067015.9,286047007.4,P
1512067035.7,286047005.2,N
1512067055.5,286047001.4,N
1512067075.4,286046998.1,N
1512067095.2,286046993.3,N
1512067115.0,286046993.3,N
1512067115.9,286046993.3,N
1512067135.8,286046994.6,N
1512067155.6,286046988.9,N
1512067175.4,286046985.6,N
1512067195.3,286046980.9,N
1512067215.1,286046976.2,Y
1512067235.8,286046980.3,P
1512067255.7,286046976.1,P
1512067275.5,286046981.4,N
1512067295.3,286046979.9,N
1512067315.2,286046975.8,Y
1512067335.9,286046994.1,P
1512067355.7,286046995.9,N
1512067375.6,286046991.3,N
1512067395.4,286046987.5,N
1512067415.2,286046988.3,N
1512067435.1,286046979.4,Y
1512067436.0,286046979.4,P
1512067455.8,286046980.9,P
1512067475.6,286046976.4,P
1512067495.5,286046977.9,Y
1512067515.3,286046996.2,P
1512067535.1,286046995.5,N
1512067555.9,286046990.2,N
1512067575.7,286046988.8,N
1512067595.5,286046994.5,N
1512067615.4,286046995.5,N
1512067635.2,286046994.8,N
1512067655.0,286046991.4,N
1512067655.9,286046991.4,N
1512067675.8,286046986.9,Y
1512067695.6,286046999.0,P
1512067715.4,286046998.7,N
1512067735.3,286047002.6,N
1512067755.1,286047001.5,N
1512067756.0,286047001.5,N
1512067775.8,286047001.5,N
1512067795.7,286047003.2,N
1512067815.5,286047000.9,N
1512067835.3,286047001.2,N
1512067855.1,286046998.2,N
1512067875.9,286047001.6,N
1512067895.7,286047005.6,N
1512067915.5,286047002.1,N
1512067935.4,286047001.9,N
1512067955.2,286046997.2,N
1512067975.0,286046995.6,N
1512067975.9,286046995.6,N
1512067995.8,286046996.9,N
1512068015.6,286046995.0,N
1512068035.4,286046991.7,N
1512068055.3,286046991.8,N
1512068075.1,286046994.1,N
1512068076.0,286046994.1,N
1512068095.8,286046996.2,N
1512068115.6,286046991.7,N
1512068135.5,286046995.1,N
1512068155.3,286046993.1,N
1512068175.1,286046997.5,N
1512068195.9,286046999.5,N
1512068215.7,286046999.8,N
1512068235.5,286046998.2,N
1512068255.4,286046998.5,N
1512068275.2,286047000.6,N
1512068295.0,286047001.0,N
1512068295.9,286047001.0,N
1512068315.8,286047000.7,N
1512068335.6,286046998.4,N
1512068355.4,286046997.2,N
1512068375.3,286046997.3,N
1512068395.1,286047000.9,N
1512068396.0,286047000.9,N
